Retour au catalogue

COSMOS 375 DEB

ActifLEO
NORAD 4942·DEBRIS·🇷🇺 Russia

Lancé Oct 30, 1970 depuis Baikonur Cosmodrome

Loading…

Prochains Passages (prochaines 24 heures)

TLE

FraisSource: Space-Track

Époque: Sep 14, 2026, 14:30 UTC

1 04942U 70091AK  26257.60477716 -.00000042  00000-0  31751-4 0  9994
2 04942  63.0968 113.8321 0816264 261.1997  89.5818 12.95849718608663

Suivez COSMOS 375 DEB en temps réel avec AllMySat

Download on the App Store